Weather History for KABI - July, 2013

Change the Weather History Date:

Wednesday, July 17, 2013

  Actual Average Record
Temperature  
Mean Temperature 75 °F 83 °F  
Max Temperature 80 °F 94 °F 110 °F (1978)
Min Temperature 69 °F 72 °F 65 °F (1900)
Degree Days  
Heating Degree Days 0 0  
Month to date heating degree days 0 0  
Since 1 June heating degree days 0 1  
Since 1 July heating degree days 0 0  
Cooling Degree Days 10 18  
Month to date cooling degree days 280 299  
Year to date cooling degree days 1285 1131  
Since 1 June cooling degree days 804 734  
Growing Degree Days 24 (Base 50)    
Moisture  
Dew Point 70 °F    
Average Humidity 87    
Maximum Humidity 100    
Minimum Humidity 74    
Precipitation  
Precipitation 0.18 in 0.06 in 2.85 in (1953)
Month to date precipitation 4.39 1.07  
Year to date precipitation 15.74 13.57  
Sea Level Pressure  
Sea Level Pressure 30.18 in    
Wind  
Wind Speed 7 mph (East)    
Max Wind Speed 29 mph    
Max Gust Speed 39 mph    
Visibility 10 miles    
Events Rain    
T = Trace of Precipitation, MM = Missing Value Source: NWS Daily Summary

Daily Weather History Graph

Daily Weather History Graph

Search for Another Location

Airport or City:

Trip Planner

Search our weather history database for the weather conditions in past years. The results will help you decide how hot, cold, wet, or windy it might be!

Date:

Astronomy

Jul. 17, 2013 Rise Set
Actual Time 6:43 AM CDT 8:45 PM CDT
Civil Twilight 6:16 AM CDT 9:13 PM CDT
Nautical Twilight 5:42 AM CDT 9:46 PM CDT
Astronomical Twilight 5:06 AM CDT 10:22 PM CDT
Moon 3:41 PM CDT (7/17) 1:45 AM CDT (7/17)
Length of Visible Light 14h 57m
Length of Day
14h 02m
Waxing Gibbous, 67% of the Moon is Illuminated
Jul 17
Waxing Gibbous
Jul 22
Full
Jul 29
Last Quarter
Aug 6
New
Aug 14
First Quarter

Hourly Weather History & Observations

Time (CDT) Temp. Dew Point Humidity Pressure Visibility Wind Dir Wind Speed Gust Speed Precip Events Conditions
12:52 AM 73.0 °F 71.1 °F 93% 30.15 in 10.0 mi ESE 16.1 mph - N/A   Partly Cloudy
1:52 AM 71.1 °F 70.0 °F 96% 30.15 in 10.0 mi SE 4.6 mph - N/A   Clear
2:52 AM 71.1 °F 69.1 °F 93% 30.13 in 10.0 mi ESE 5.8 mph - 0.02 in Rain Light Rain
3:52 AM 70.0 °F 69.1 °F 97% 30.14 in 10.0 mi SE 3.5 mph - 0.01 in   Partly Cloudy
4:52 AM 70.0 °F 69.1 °F 97% 30.14 in 10.0 mi East 4.6 mph - N/A   Clear
5:52 AM 70.0 °F 69.1 °F 97% 30.16 in 10.0 mi Calm Calm - N/A   Scattered Clouds
6:52 AM 70.0 °F 69.1 °F 97% 30.17 in 10.0 mi East 4.6 mph - N/A   Partly Cloudy
7:40 AM 69.8 °F 69.8 °F 100% 30.25 in 10.0 mi East 4.6 mph - N/A   Partly Cloudy
7:52 AM 70.0 °F 69.1 °F 97% 30.19 in 10.0 mi East 5.8 mph - N/A   Scattered Clouds
8:52 AM 72.0 °F 69.1 °F 91% 30.20 in 10.0 mi East 6.9 mph - N/A   Mostly Cloudy
9:52 AM 73.9 °F 70.0 °F 87% 30.20 in 10.0 mi East 8.1 mph - N/A   Mostly Cloudy
9:59 AM 73.4 °F 69.8 °F 88% 30.27 in 10.0 mi East 8.1 mph - N/A   Overcast
10:10 AM 73.4 °F 69.8 °F 88% 30.27 in 10.0 mi East 9.2 mph - N/A   Overcast
10:27 AM 73.4 °F 69.8 °F 88% 30.27 in 10.0 mi East 6.9 mph - N/A   Overcast
10:52 AM 73.9 °F 71.1 °F 91% 30.20 in 10.0 mi East 6.9 mph - 0.00 in   Overcast
11:52 AM 75.9 °F 72.0 °F 87% 30.20 in 10.0 mi East 6.9 mph - 0.01 in   Mostly Cloudy
12:48 PM 78.8 °F 69.8 °F 74% 30.25 in 10.0 mi East 8.1 mph - N/A   Mostly Cloudy
12:52 PM 78.1 °F 70.0 °F 76% 30.18 in 10.0 mi East 11.5 mph - N/A   Mostly Cloudy
1:09 PM 77.0 °F 69.8 °F 78% 30.25 in 10.0 mi East 17.3 mph 21.9 mph N/A   Overcast
1:52 PM 75.0 °F 71.1 °F 87% 30.17 in 9.0 mi ESE 10.4 mph - 0.01 in Rain Light Rain
2:52 PM 78.1 °F 72.0 °F 81% 30.14 in 10.0 mi East 8.1 mph - 0.02 in   Mostly Cloudy
3:52 PM 75.0 °F 70.0 °F 84% 30.14 in 10.0 mi ENE 11.5 mph 27.6 mph 0.01 in   Overcast
4:34 PM 75.2 °F 71.6 °F 89% 30.20 in 10.0 mi East 10.4 mph - 0.00 in   Mostly Cloudy
4:52 PM 73.9 °F 70.0 °F 87% 30.15 in 9.0 mi East 12.7 mph - 0.00 in Rain Light Rain
5:52 PM 75.0 °F 71.1 °F 87% 30.14 in 10.0 mi ENE 6.9 mph - 0.01 in   Mostly Cloudy
6:52 PM 75.9 °F 72.0 °F 87% 30.12 in 10.0 mi ENE 6.9 mph - N/A   Clear
7:52 PM 75.9 °F 72.0 °F 87% 30.14 in 10.0 mi East 10.4 mph - N/A   Clear
8:52 PM 72.0 °F 68.0 °F 87% 30.18 in 10.0 mi ESE 17.3 mph 28.8 mph 0.00 in Rain Light Rain
9:52 PM 69.1 °F 66.9 °F 93% 30.17 in 9.0 mi South 4.6 mph - 0.03 in Rain Light Rain
10:52 PM 69.1 °F 68.0 °F 96% 30.15 in 10.0 mi Calm Calm - 0.06 in Rain Light Rain
11:52 PM 70.0 °F 69.1 °F 97% 30.17 in 10.0 mi ESE 4.6 mph - 0.00 in   Scattered Clouds